Content
SEND FEEDBACK

Daily
Averages
Monthly
Summary
United States of America

PIPESTONE, MINNESOTA


Home > North America > United States > Minnesota
Elevation: 1736 feet     Latitude: 43 59N     Longitude: 096 18W

WEATHER
 
SELECT A DAY
Number of Records: 438,473;   Date Range: 1/1/95 - 9/18/14
 
SHARE

PRINT THIS DATA

[ ← Previous Day ]
WEATHER ALMANAC - FEBRUARY 13, 2013
[ Next Day → ]
[ °C ]   °F
Weather ElementAverageHighLow
Temperature27.1 °F35.6 °F (4:33 pm)14 °F (3:53 am)
Dewpoint23.4 °F32 °F (7:54 pm)12.2 °F (1:53 am)
Humidity86.4 %100 % (6:13 am)75 % (1:13 pm)
Barometer29.68 in29.82 in (12:33 am)29.58 in (5:33 pm)
Wind Speed8.9 mph23 mph (9:33 pm)
Wind Gust32.2 mph (9:33 pm)
Weather ElementAverage
Visibility9.9 mi
Wind DirectionSW (227 °)

Weather ElementTotal
Precipitation0.07 in
Heating Degree Days40.2 (Base 65)
Averaged from 69 records on February 13, 2013
WEATHER CONDITIONS BREAKOUT
WIND DIRECTION BREAKOUT
WEATHER BY HOUR - FEBRUARY 13, 2013
[ °C ]   °F
Local TimeTemperatureDewpointHumidityBarometerVisibilityWind DirectionWind SpeedGust SpeedPrecipitationEventsConditions
12:33 AM17.6 °F15.8 °F93 %29.82 in10.0 miCalmScattered Clouds
12:53 AM17.6 °F15.8 °F93 %29.81 in10.0 miCalmScattered Clouds
1:13 AM17.6 °F15.8 °F93 %29.80 in7.0 miCalmOvercast
1:33 AM17.6 °F15.8 °F93 %29.80 in7.0 miCalmOvercast
1:53 AM15.8 °F12.2 °F86 %29.80 in10.0 miWest (260°)3.5 mphOvercast
2:13 AM15.8 °F12.2 °F86 %29.80 in10.0 miWest (260°)3.5 mphOvercast
2:33 AM15.8 °F12.2 °F86 %29.79 in10.0 miCalmMostly Cloudy
2:53 AM15.8 °F14.0 °F93 %29.79 in10.0 miCalmClear
3:13 AM15.8 °F14.0 °F93 %29.79 in10.0 miWSW (240°)5.8 mphScattered Clouds
3:34 AM15.8 °F12.2 °F86 %29.78 in10.0 miCalmClear
3:53 AM14.0 °F12.2 °F93 %29.77 in10.0 miCalmMostly Cloudy
4:13 AM15.8 °F12.2 °F86 %29.77 in10.0 miWSW (240°)5.8 mphMostly Cloudy
4:34 AM14.0 °F12.2 °F93 %29.77 in10.0 miWSW (250°)5.8 mphMostly Cloudy
4:53 AM17.6 °F15.8 °F93 %29.77 in10.0 miWest (260°)5.8 mphMostly Cloudy
5:13 AM17.6 °F15.8 °F93 %29.76 in10.0 miWSW (250°)3.5 mphScattered Clouds
5:34 AM17.6 °F15.8 °F93 %29.76 in10.0 miWest (260°)3.5 mphClear
5:53 AM17.6 °F15.8 °F93 %29.75 in10.0 miWest (260°)4.6 mphClear
6:13 AM17.6 °F17.6 °F100 %29.74 in10.0 miWest (260°)3.5 mphClear
6:33 AM17.6 °F17.6 °F100 %29.75 in10.0 miWest (270°)4.6 mphClear
6:53 AM21.2 °F19.4 °F93 %29.74 in10.0 miWest (260°)3.5 mphClear
7:13 AM21.2 °F19.4 °F93 %29.74 in10.0 miWest (260°)4.6 mphMostly Cloudy
7:33 AM19.4 °F17.6 °F93 %29.74 in10.0 miWSW (250°)3.5 mphMostly Cloudy
7:53 AM19.4 °F17.6 °F93 %29.73 in10.0 miCalmScattered Clouds
8:13 AM21.2 °F19.4 °F93 %29.73 in10.0 miCalmClear
8:33 AM17.6 °F17.6 °F100 %29.73 in10.0 miSW (230°)4.6 mphClear
8:53 AM21.2 °F19.4 °F93 %29.72 in10.0 miSW (230°)4.6 mphClear
9:13 AM21.2 °F19.4 °F93 %29.71 in10.0 miSSW (210°)5.8 mphClear
9:33 AM23.0 °F21.2 °F93 %29.70 in10.0 miSSW (200°)5.8 mphClear
9:53 AM24.8 °F21.2 °F86 %29.70 in10.0 miSW (230°)8.1 mphClear
10:14 AM26.6 °F23.0 °F86 %29.70 in10.0 miWSW (240°)8.1 mphClear
10:33 AM26.6 °F24.8 °F93 %29.70 in10.0 miWSW (250°)8.1 mphClear
11:13 AM28.4 °F24.8 °F86 %29.69 in10.0 miWSW (250°)6.9 mphClear
11:33 AM30.2 °F24.8 °F80 %29.69 in10.0 miWSW (250°)8.1 mphClear
11:53 AM30.2 °F26.6 °F86 %29.68 in10.0 miWSW (240°)6.9 mphClear
12:13 PM30.2 °F26.6 °F86 %29.67 in10.0 miWSW (240°)9.2 mphClear
12:53 PM32.0 °F26.6 °F80 %29.65 in10.0 miWSW (240°)10.4 mph0.01 inScattered Clouds
1:13 PM33.8 °F26.6 °F75 %29.65 in10.0 miWSW (240°)9.2 mph0.01 inClear
1:33 PM33.8 °F26.6 °F75 %29.63 in10.0 miSW (230°)8.1 mph0.01 inScattered Clouds
1:53 PM33.8 °F28.4 °F81 %29.62 in10.0 miSW (220°)9.2 mph0.01 inScattered Clouds
2:13 PM33.8 °F28.4 °F81 %29.61 in10.0 miSW (220°)10.4 mph0.01 inScattered Clouds
2:33 PM33.8 °F28.4 °F81 %29.60 in10.0 miSW (220°)10.4 mphScattered Clouds
2:53 PM33.8 °F28.4 °F81 %29.60 in10.0 miSW (230°)13.8 mph0.01 inScattered Clouds
3:13 PM33.8 °F28.4 °F81 %29.60 in10.0 miWSW (240°)12.7 mphScattered Clouds
3:33 PM33.8 °F28.4 °F81 %29.60 in10.0 miWSW (250°)12.7 mphMostly Cloudy
3:53 PM33.8 °F28.4 °F81 %29.60 in10.0 miWSW (250°)12.7 mph0.01 inOvercast
4:13 PM33.8 °F28.4 °F81 %29.60 in10.0 miWest (260°)12.7 mphOvercast
4:33 PM35.6 °F28.4 °F75 %29.60 in10.0 miWSW (250°)11.5 mphOvercast
4:53 PM35.6 °F28.4 °F75 %29.59 in10.0 miWest (260°)12.7 mphOvercast
5:13 PM35.6 °F30.2 °F81 %29.59 in10.0 miWest (260°)10.4 mphOvercast
5:33 PM35.6 °F30.2 °F81 %29.58 in10.0 miWest (260°)11.5 mphOvercast
5:53 PM35.6 °F30.2 °F81 %29.58 in10.0 miWest (270°)11.5 mphOvercast
6:13 PM35.6 °F30.2 °F81 %29.58 in10.0 miWest (260°)11.5 mphMostly Cloudy
6:33 PM35.6 °F30.2 °F81 %29.58 in10.0 miWest (270°)10.4 mphOvercast
6:53 PM33.8 °F30.2 °F87 %29.59 in10.0 miWNW (290°)11.5 mphScattered Clouds
7:13 PM35.6 °F30.2 °F81 %29.60 in10.0 miWNW (290°)12.7 mphClear
7:33 PM35.6 °F30.2 °F81 %29.61 in10.0 miWNW (300°)15.0 mph19.6 mphMostly Cloudy
7:54 PM35.6 °F32.0 °F87 %29.61 in10.0 miNW (310°)13.8 mphOvercast
8:13 PM35.6 °F32.0 °F87 %29.61 in10.0 miWNW (300°)13.8 mph20.7 mphOvercast
8:33 PM35.6 °F30.2 °F81 %29.62 in10.0 miNW (310°)16.1 mph24.2 mphOvercast
8:53 PM35.6 °F30.2 °F81 %29.62 in10.0 miNW (310°)17.3 mph25.3 mphOvercast
9:13 PM35.6 °F30.2 °F81 %29.62 in10.0 miNW (310°)17.3 mph24.2 mphOvercast
9:33 PM35.6 °F30.2 °F81 %29.62 in10.0 miNW (320°)23.0 mph32.2 mphOvercast
9:53 PM35.6 °F30.2 °F81 %29.63 in10.0 miNNW (330°)18.4 mph32.2 mphOvercast
10:13 PM35.6 °F30.2 °F81 %29.64 in10.0 miNNW (330°)17.3 mph25.3 mphOvercast
10:33 PM35.6 °F30.2 °F81 %29.64 in10.0 miNNW (330°)21.9 mph28.8 mphOvercast
10:53 PM33.8 °F30.2 °F87 %29.65 in10.0 miNNW (330°)18.4 mph21.9 mphMostly Cloudy
11:13 PM33.8 °F28.4 °F81 %29.66 in10.0 miNNW (340°)19.6 mph28.8 mphOvercast
11:33 PM30.2 °F28.4 °F93 %29.67 in10.0 miNNW (340°)18.4 mph28.8 mphMostly Cloudy
11:53 PM30.2 °F26.6 °F86 %29.68 in10.0 miNNW (340°)20.7 mph29.9 mphMostly Cloudy
Hourly data recorded from KPQN, located miles away from Pipestone, Minnesota







STORIES FROM OUR PARTNERS